Home   Weather   San Salvador   Past weeks
Flag for El Salvador

Past Weather in San Salvador, El Salvador — Yesterday and Last 2 Weeks

Now
70 °F

Passing clouds.


Feels Like: 70 °F
Forecast: 87 / 62 °F
Wind: 5 mph from Northeast

Location: El Salvador Intl. Airport / Comalapa

Current Time: Feb 26, 2020 at 4:44:58 am

Latest Report: Feb 26, 2020 at 3:50 am


Visibility: N/A

Pressure: 29.86 "Hg (27.63 "Hg at 667m altitude)

Humidity: 88%

Dew Point: 66 °F

Location of San SalvadorLocation

Past Weather in San Salvador — Graph

°F

San Salvador Temperature Yesterday

Maximum temperature yesterday: 91 °F (at 12:50 pm)
Minimum temperature yesterday: 70 °F (at 4:50 am)
Average temperature yesterday: 80 °F

High & Low Weather Summary for the Past Weeks

 TemperatureHumidityPressure
High99 °F (Feb 16, 11:50 am)94% (Feb 25, 11:50 pm)29.98 "Hg (Feb 25, 11:50 pm)
Low70 °F (Feb 12, 5:50 am)24% (Feb 16, 11:50 am)29.56 "Hg (Feb 18, 11:50 am)
Average84 °F57%29.85 "Hg
* Reported Feb 11 2:50 am — Feb 26 1:50 am, San Salvador. Weather by CustomWeather, © 2020

Note: Actual official high and low records may vary slightly from our data, if they occured in-between our weather recording intervals... More about our weather records

San Salvador Weather History for the Previous 24 Hours

Scroll right to see more
 ConditionsComfort  
Time TempWeatherWind HumidityBarometerVisibility
1:50 am
Wed, Feb 26
73 °FClear.5 mph89%29.86 "Hg10 mi
12:50 am73 °FClear.2 mph89%29.86 "Hg10 mi
11:50 pm
Tue, Feb 25
72 °FClear.2 mph94%29.89 "Hg10 mi
10:50 pm73 °FPassing clouds.3 mph89%29.89 "HgN/A
9:50 pm75 °FClear.2 mph83%29.89 "Hg10 mi
8:50 pm77 °FPassing clouds.2 mph79%29.89 "HgN/A
7:50 pm77 °FPassing clouds.1 mph79%29.89 "HgN/A
6:50 pm81 °FPassing clouds.2 mph74%29.86 "HgN/A
5:50 pm84 °FPassing clouds.6 mph66%29.86 "HgN/A
4:50 pm86 °FPassing clouds.8 mph59%29.83 "HgN/A
3:50 pm88 °FPassing clouds.9 mph55%29.83 "HgN/A
2:50 pm90 °FPassing clouds.10 mph52%29.83 "HgN/A
1:50 pm90 °FPassing clouds.10 mph49%29.86 "HgN/A
12:50 pm91 °FPassing clouds.9 mph46%29.86 "HgN/A
11:50 am90 °FScattered clouds.9 mph49%29.89 "HgN/A
10:50 am90 °FPassing clouds.7 mph49%29.92 "HgN/A
9:50 am88 °FPassing clouds.6 mph52%29.92 "HgN/A
8:50 am86 °FPassing clouds.3 mph55%29.92 "HgN/A
7:50 am81 °FSunny.2 mph62%29.89 "Hg10 mi
6:50 am72 °FSunny.3 mph83%29.86 "Hg10 mi
5:50 am70 °FClear.5 mph88%29.86 "Hg10 mi
4:50 am70 °FClear.2 mph88%29.83 "Hg10 mi
Weather by CustomWeather, © 2020

See weather overview

Advertising